Date/Time (UTC),ProbHail,ProbWind,ProbTor,MESH,VIL Density,Flash Rate,Max Flash Density,LJA sigma-level,Max 0-2km AzShear,LLAZ 98th%,MLAZ 98th%,MUCAPE,MLCAPE,CAPE -10C to -30C,MLCIN,SRH 0-1km AGL,EBShear,MeanWind 0-1km AGL,Norm. Sat. Growth Rate,PWAT,WBZ,AvgBeamHgt,size
2019/05/21 19:24,2,60,91,0.12,1.2,8,0.17,0.0,21,16,25,1500,1113,328,1,270,66.9,52.9,0,1.9,10.8,1.0,155
2019/05/21 19:26,2,68,93,0.14,1.2,21,0.55,0.0,21,16,25,1510,1115,321,1,273,67.0,53.0,0,1.8,10.8,1.0,160
2019/05/21 19:27,2,68,93,0.14,1.2,21,0.55,0.0,21,17,18,1510,1103,304,1,278,67.5,53.0,0,1.8,10.8,0.9,126
2019/05/21 19:31,4,78,92,0.16,1.3,34,0.55,0.0,21,17,19,1412,1039,303,1,313,69.5,53.0,0,1.8,11.0,0.5,697
2019/05/21 19:34,7,86,92,0.17,1.4,66,0.55,0.0,35,20,24,1435,1050,302,1,318,69.5,53.1,0,1.8,10.9,0.6,801
2019/05/21 19:36,7,87,92,0.18,1.4,66,0.55,0.0,35,20,24,1563,1103,305,1,305,68.9,53.3,0,1.8,10.9,0.7,907
2019/05/21 19:38,8,87,92,0.18,1.4,67,0.61,1.5,35,20,18,1550,1103,307,1,316,69.8,53.2,0,1.8,11.0,0.8,1158
2019/05/21 19:40,11,89,92,0.28,1.3,67,0.65,0.0,35,20,20,1542,1104,309,1,323,70.5,53.5,0,1.8,10.9,0.9,1135
2019/05/21 19:42,12,89,92,0.28,1.4,80,0.85,1.0,35,20,20,1432,1069,306,1,339,71.6,53.5,0,1.8,10.9,0.9,1142
2019/05/21 19:44,14,89,93,0.33,1.4,80,0.85,0.0,15,11,20,1430,1074,307,1,342,71.6,53.7,0,1.8,10.9,1.0,1225
2019/05/21 19:46,14,89,90,0.33,1.5,80,0.85,0.1,26,10,15,1406,1085,313,1,352,72.4,53.9,0,1.8,10.9,1.2,1228
2019/05/21 19:48,17,89,93,0.38,1.8,80,0.85,0.3,32,11,15,1403,1089,314,1,355,72.6,54.0,0,1.8,10.9,1.2,1273
2019/05/21 19:50,24,90,93,0.5,1.8,74,0.85,0.0,32,11,13,1406,1089,315,1,356,72.9,54.1,0,1.8,10.9,1.2,1161
2019/05/21 19:52,22,90,92,0.5,1.8,74,0.85,1.3,32,11,14,1153,880,267,0,447,66.8,51.1,0,1.8,11.3,1.4,1287
2019/05/21 19:54,24,90,90,0.54,1.7,89,0.85,1.5,16,10,16,1207,902,265,0,452,67.5,51.6,0,1.8,11.2,1.5,1201
2019/05/21 19:56,33,92,88,0.54,1.7,111,0.91,2.2,16,10,19,1206,908,264,0,454,67.3,51.7,0,1.8,11.2,1.5,1217
2019/05/21 19:58,48,94,89,0.65,1.7,111,0.91,0.0,17,10,19,1224,924,266,0,454,67.7,52.1,0,1.8,11.0,1.6,1252
2019/05/21 20:00,48,94,90,0.65,1.7,111,0.96,0.8,26,10,22,1322,923,275,0,455,67.1,52.9,0,1.8,11.0,1.8,1291
2019/05/21 20:02,48,97,92,0.65,2.0,111,0.96,0.0,26,11,21,1338,952,275,0,452,67.5,53.6,0,1.8,10.8,1.8,1193
2019/05/21 20:04,46,97,92,0.71,2.0,96,0.96,0.0,26,11,20,1358,956,279,0,451,67.5,53.7,0,1.8,10.8,1.9,1175
2019/05/21 20:06,48,97,92,0.71,2.0,96,0.96,0.6,26,11,19,1366,977,282,0,450,67.6,53.7,0,1.8,10.8,1.8,1157
2019/05/21 20:08,47,94,92,0.71,1.8,93,0.96,0.7,26,11,21,1412,979,301,0,442,67.0,54.4,0,1.8,10.7,2.1,1524
2019/05/21 20:10,40,94,93,0.59,1.8,160,0.96,4.4,26,11,18,1439,998,309,0,439,67.0,55.3,0,1.8,10.6,2.3,1085
2019/05/21 20:12,40,97,90,0.57,2.6,160,0.96,0.0,20,10,18,1457,1017,316,0,436,67.0,55.5,0,1.8,10.6,2.4,1055
2019/05/21 20:14,40,97,93,0.57,2.6,160,0.96,0.0,24,12,18,1460,1021,320,0,434,67.1,55.6,0,1.8,10.6,2.4,1162
2019/05/21 20:16,40,97,92,0.57,2.6,160,0.96,0.0,24,17,17,1467,1040,330,0,431,67.2,55.9,0,1.8,10.6,2.5,1143
2019/05/21 20:18,40,95,92,0.55,2.4,112,0.96,0.1,33,17,15,1490,1024,345,0,425,67.0,56.5,0,1.8,10.6,2.8,1040
2019/05/21 20:20,27,92,92,0.43,1.8,115,0.96,0.8,33,17,15,1491,1018,348,0,424,66.5,56.6,0,1.8,10.7,2.9,1116
2019/05/21 20:22,27,92,92,0.43,1.8,115,0.96,0.0,33,17,15,1480,1025,349,0,423,66.5,56.7,0,1.8,10.7,2.9,1128
2019/05/21 20:24,27,92,92,0.43,1.8,115,0.96,0.4,33,17,16,1499,1043,361,0,419,65.7,57.0,0,1.8,10.7,3.2,1002
2019/05/21 20:26,27,95,93,0.45,2.3,115,0.96,0.0,26,11,17,1506,1062,364,0,417,66.7,57.3,0,1.8,10.7,3.3,993
2019/05/21 20:28,31,95,93,0.48,2.3,108,0.96,1.3,29,11,18,1508,1075,366,0,416,67.0,57.3,0,1.8,10.7,3.4,1095
2019/05/21 20:30,31,95,93,0.48,2.3,108,0.96,0.0,29,11,16,1519,1098,367,0,414,67.8,57.4,0,1.8,10.7,3.5,1007
2019/05/21 20:32,31,95,93,0.49,2.2,124,1.19,1.8,29,11,14,1520,1130,373,0,409,67.3,57.0,0,1.8,10.8,3.7,983
2019/05/21 20:34,35,95,89,0.54,2.5,124,1.19,0.0,22,9,14,1520,1153,376,0,408,68.2,57.3,0,1.8,10.8,3.8,958
2019/05/21 20:36,35,95,91,0.54,2.7,124,1.19,0.0,22,10,13,1516,1154,378,0,405,67.9,57.1,0,1.8,10.8,4.0,893
2019/05/21 20:38,35,95,93,0.54,2.7,124,1.19,0.3,29,18,14,1557,1194,383,0,410,70.3,58.4,0,1.8,10.8,4.0,602
2019/05/21 20:40,30,95,93,0.55,2.7,92,1.19,0.3,29,18,16,1555,1213,389,0,401,68.6,57.3,0,1.8,10.8,4.4,1014
2019/05/21 20:42,30,95,93,0.55,2.6,92,1.19,0.0,29,18,15,1563,1225,393,0,401,68.5,57.3,0,1.8,10.8,4.5,1021
2019/05/21 20:44,33,95,93,0.55,2.6,92,1.19,0.0,27,19,17,1592,1210,402,1,413,69.5,58.5,0,1.8,10.8,4.4,640
2019/05/21 20:46,38,95,93,0.55,2.6,130,1.19,5.1,27,19,14,1606,1265,409,1,397,67.2,56.8,0,1.9,10.9,4.9,1025
2019/05/21 20:48,42,97,93,0.61,2.5,130,1.19,0.0,26,22,13,1610,1270,417,1,396,67.0,56.8,0,1.9,10.9,5.1,1061
2019/05/21 20:50,53,97,93,0.71,2.7,130,1.19,0.0,26,22,13,1618,1290,416,1,395,66.7,56.6,0,1.9,11.0,5.2,1076
2019/05/21 20:52,53,97,93,0.71,2.8,130,1.19,0.0,26,22,11,1800,1315,431,1,410,67.2,57.8,0,1.8,10.9,5.1,681
2019/05/21 20:54,53,97,93,0.71,2.8,135,1.19,2.6,25,21,12,1434,1188,373,0,408,63.3,55.4,0,1.9,11.0,5.6,1198
2019/05/21 20:56,48,97,93,0.67,2.8,135,1.19,0.0,22,12,12,1456,1215,376,0,412,63.2,55.7,0,1.8,11.0,5.7,1170
2019/05/21 20:58,53,97,93,0.74,2.8,135,1.19,0.0,22,12,11,1480,1240,379,0,412,63.2,56.0,0,1.8,11.0,5.9,1083
2019/05/21 21:00,53,97,93,0.74,2.8,135,1.19,0.3,20,17,11,1513,1280,379,0,405,63.2,56.5,0,1.9,11.0,6.3,994
